SCP
0 -0 0 0 -0 0 0 0 0 0 0 0 0 0 0 0 0 0 0 0 0 0 1 0 1 1 0 0 0 0 1 1 0 0 0 0 0 0 0 0 0 0 0 0 0 0 0 0 0
0 0 0 -0 0 0 0 -0 0 0 0 0 0 0 -0 0 0 0 0 0 0 0 1 0 1 1 1 1 1 1 1 1 1 0 0 0 0 0 0 0 0 0 0 0 0 0 0 0 0
-0 0 -0 0 0 0 0 0 0 0 0 0 0 0 0 0 0 0 0 0 0 0 0 2 1 1 1 1 1 1 1 1 1 0 0 0 0 0 0 0 0 0 0 0 0 0 0 0 0
0 0 0 -0 0 0 0 0 0 0 -0 0 0 0 0 0 0 0 0 0 0 0 0 1 2 2 2 1 2 2 1 1 1 0 0 0 0 0 0 0 0 0 0 0 0 0 0 0 0
-0 -0 -0 -0 -0 0 -0 0 0 0 0 0 0 0 0 0 0 0 0 0 0 0 0 0 2 1 1 0 1 1 1 1 0 0 0 0 0 0 0 0 0 0 0 0 0 0 0 0 0
0 0 -0 -0 0 0 0 0 0 0 -0 0 0 0 0 0 0 0 0 0 0 0 0 0 0 0 0 1 1 0 0 0 0 0 0 0 0 0 0 0 0 0 0 0 0 0 0 0 0
-0 -0 -0 -0 0 -0 -0 0 0 0 0 0 0 0 0 0 0 0 0 0 0 0 0 0 0 0 0 0 0 0 0 0 0 0 0 0 0 0 0 0 0 0 0 0 0 0 0 0 0
0 0 -0 -0 -0 -0 0 0 0 0 0 0 0 0 0 0 0 0 0 0 0 0 0 0 0 0 0 0 0 0 0 0 0 0 0 0 0 0 0 0 0 0 0 0 0 0 0 0 0
0 0 0 -0 0 0 0 0 0 0 0 0 0 0 0 0 0 0 0 0 0 0 0 0 0 0 0 0 0 0 0 0 0 0 0 0 0 0 0 0 0 0 0 0 0 0 0 0 0
0 0 0 -0 0 0 0 0 0 0 0 0 0 0 0 0 0 0 0 0 0 0 0 0 0 0 0 0 0 0 0 0 0 0 0 0 0 0 0 0 0 0 0 0 0 0 0 0 0
0 0 0 0 0 0 0 0 0 0 0 0 0 0 0 0 0 0 0 0 0 0 0 0 0 0 0 0 0 0 0 0 0 0 0 0 0 0 0 0 0 0 0 0 0 0 0 0 0
0 0 0 0 0 0 0 -0 0 0 0 0 0 0 0 0 0 0 0 0 0 0 0 0 0 0 0 0 0 0 0 0 0 0 0 0 0 0 0 0 0 0 0 0 0 0 0 0 0
0 0 -0 -0 0 0 0 0 -0 0 0 0 0 0 0 0 0 0 0 0 0 0 0 0 0 0 1 0 0 0 0 0 0 0 0 0 0 0 0 0 0 0 0 0 0 0 0 0 0
-0 -0 -0 -0 0 0 0 0 0 0 0 0 0 0 0 0 0 0 0 0 0 0 0 0 0 0 0 0 0 0 0 0 0 0 0 0 0 0 0 0 0 0 0 0 0 0 0 0 0
-0 -0 -0 -0 0 0 0 0 0 -0 0 0 0 0 0 0 0 0 0 0 0 0 0 0 0 0 0 0 0 0 0 0 0 0 0 0 0 0 0 0 0 0 0 0 0 0 0 0 1
-0 -0 0 0 0 -0 0 0 0 0 0 0 0 0 0 0 0 0 0 0 0 0 0 0 0 0 0 0 0 0 0 0 0 0 0 0 0 -0 0 0 0 0 0 0 0 0 0 0 0
-0 0 -0 -0 -0 -0 0 0 0 0 -0 0 0 0 0 0 0 0 0 0 0 0 0 0 0 0 0 0 0 0 0 0 1 0 0 0 -0 -0 0 0 0 0 -0 0 0 0 0 0 0
0 -0 -0 -0 0 -0 0 0 0 0 0 0 0 0 0 0 0 0 0 0 0 0 0 0 0 0 0 0 0 0 0 0 1 0 0 0 -0 -0 -0 -0 -0 -0 -0 -0 0 0 0 0 0
0 0 -0 -0 -0 0 0 0 0 0 0 -0 -0 0 0 0 0 0 0 0 0 0 0 0 0 0 0 0 0 0 0 0 0 0 0 0 0 -0 -0 -0 -0 0 0 0 0 0 0 0 0
0 0 0 0 0 0 0 0 0 0 0 0 0 0 0 0 0 0 0 0 0 0 0 0 0 0 0 0 0 0 0 0 0 0 0 0 0 -0 -0 0 -0 0 0 0 0 0 0 0 0
0 -0 -0 0 0 -0 0 0 0 -0 0 0 0 0 0 0 0 0 0 0 0 0 0 0 0 0 0 0 0 0 0 0 0 0 0 0 0 -0 0 0 0 -0 0 0 0 0 0 0 0
0 -0 -0 0 0 -0 0 -0 -0 0 0 0 0 0 0 0 0 0 0 0 0 0 0 0 0 0 0 0 0 0 0 0 0 0 0 0 0 -0 0 0 0 -0 0 0 0 0 0 0 0
-0 -0 -0 0 -0 -0 -0 -0 0 0 -0 0 0 0 0 0 0 0 0 0 0 0 0 0 0 0 0 0 0 0 0 0 0 0 0 0 0 -0 0 -0 -0 0 0 0 0 0 0 0 0
0 -0 0 0 0 -0 0 0 -0 -0 0 0 0 0 0 0 0 0 0 0 0 0 0 0 0 0 0 0 0 0 0 0 0 0 0 0 0 0 -0 -0 0 0 0 0 0 0 0 0 0
-0 0 0 0 -0 -0 -0 -0 -0 0 0 0 0 0 0 0 0 0 0 0 0 0 0 0 0 0 0 0 0 0 0 0 0 0 0 0 0 0 -0 -0 0 0 0 0 0 0 0 0 0
0 0 0 0 0 -0 -0 0 0 0 0 0 0 0 0 0 0 0 0 0 0 0 0 0 0 0 0 0 0 0 0 0 0 0 0 0 0 -0 -0 -0 0 0 0 0 0 0 0 0 0
0 0 0 -0 0 0 0 0 0 0 0 0 0 0 0 0 0 0 0 0 0 0 0 0 0 0 0 0 0 0 0 0 0 0 0 -0 0 0 -0 -0 -0 0 0 0 0 0 0 0 0
-0 0 0 -0 -0 0 0 -0 0 0 0 0 0 0 0 0 0 0 -0 0 0 -0 0 0 0 0 0 0 0 0 0 0 0 0 0 -0 -0 -0 -0 -0 -0 0 0 0 0 0 0 0 0
0 -0 0 0 0 0 0 0 0 0 0 0 0 0 0 0 0 0 -0 0 -0 -0 0 0 0 0 0 -0 0 0 0 0 0 0 0 -0 -0 -0 -0 0 -0 -0 0 0 0 0 0 0 0
0 0 0 0 0 0 0 0 0 0 0 0 0 0 0 -0 -0 -0 -0 -0 -0 -0 0 0 0 0 0 0 0 0 0 0 0 0 0 0 -0 0 0 -0 0 0 0 0 0 0 0 0 0
Wind_Speed_500mb
21 18 10 20 13 16 31 23 15 15 26 27 17 13 22 20 22 8 17 9 7 3 10 21 19 13 19 25 25 24 27 29 33 32 35 35 37 32 30 30 29 31 31 29 27 25 23 25 26
20 9 16 22 21 27 6 19 13 21 21 21 13 12 10 20 24 15 23 10 5 4 9 14 18 22 25 29 29 28 31 35 37 34 38 39 39 40 36 35 31 29 31 30 28 27 27 26 26
25 16 26 16 28 28 14 6 19 24 23 5 19 7 3 13 15 10 11 3 6 7 23 22 23 29 36 36 33 32 35 38 40 43 44 41 40 42 41 42 42 37 36 32 28 28 28 25 28
9 19 26 19 32 24 16 14 16 20 28 9 8 8 17 15 19 14 5 5 8 9 8 20 19 28 39 36 37 41 42 44 47 47 47 45 46 46 47 47 44 43 41 36 29 31 32 31 30
20 23 24 36 36 14 36 21 13 16 21 25 16 5 16 21 21 17 11 8 11 12 14 17 27 35 35 37 39 45 46 50 50 50 52 52 50 49 50 48 47 47 44 45 37 37 36 36 34
24 34 25 30 32 9 18 10 10 22 26 14 9 2 16 26 18 14 12 11 12 17 21 16 23 30 33 33 31 37 43 50 52 53 53 54 55 56 59 59 57 51 48 47 42 37 40 36 38
31 24 34 39 38 38 33 7 10 23 19 15 20 10 7 24 18 14 14 19 13 8 13 14 15 30 32 29 34 36 37 43 48 52 55 59 61 59 58 61 60 50 46 46 44 38 40 41 39
39 23 42 37 35 33 13 20 20 24 12 13 3 7 9 19 18 8 14 14 9 17 8 14 20 16 22 31 29 38 43 49 44 45 52 53 53 48 35 37 44 43 45 45 45 40 38 40 39
41 27 31 43 42 28 35 28 24 24 16 31 14 11 8 14 16 13 17 19 15 13 19 17 14 26 32 24 28 34 40 38 46 32 38 39 34 25 22 26 36 32 38 43 41 38 35 38 42
41 28 46 44 41 29 40 31 40 38 29 26 29 25 25 23 22 23 24 21 28 17 15 20 29 36 41 20 21 28 27 36 47 51 34 31 29 30 26 29 36 31 39 40 42 39 33 36 42
52 41 44 54 50 40 45 42 41 34 20 19 15 2 34 27 29 29 26 26 14 6 7 18 30 35 35 22 25 26 22 37 53 33 26 27 23 19 15 23 30 31 33 42 43 42 38 36 41
49 63 61 62 48 47 38 57 42 27 23 25 5 8 25 33 32 30 28 21 15 14 12 12 17 27 29 29 21 18 25 38 33 22 33 31 21 15 20 27 28 33 31 40 42 39 34 28 31
55 52 66 50 37 58 62 51 39 30 25 17 13 20 22 22 29 32 29 18 17 10 13 14 24 22 27 24 19 26 35 37 26 22 25 34 25 25 26 24 24 28 30 35 38 36 38 25 37
60 62 55 46 64 60 48 39 37 51 25 13 19 23 30 30 29 28 26 25 18 17 10 16 14 20 18 21 26 30 36 31 29 22 25 32 24 26 25 22 24 28 35 40 35 39 38 35 37
63 51 46 48 45 46 51 39 32 49 31 41 29 36 31 25 27 34 35 27 24 18 14 14 17 17 23 25 28 31 35 33 29 28 32 32 30 25 23 19 19 25 43 38 43 42 30 38 43
47 52 43 46 45 59 51 38 31 42 41 43 38 32 39 37 32 29 27 29 27 20 16 14 10 14 17 25 27 27 32 34 32 29 30 34 32 28 21 18 19 15 36 43 41 45 37 34 39
42 37 51 48 46 49 43 35 33 43 43 39 33 34 33 29 29 28 29 30 25 20 16 11 13 9 19 18 27 30 28 35 28 29 26 25 27 28 22 17 11 12 27 40 39 42 34 35 42
40 46 43 45 46 44 28 35 31 47 49 22 52 44 37 33 38 36 35 28 25 20 16 11 7 13 18 14 25 22 27 24 25 25 24 22 20 24 23 19 16 16 26 37 46 40 38 46 45
49 46 48 45 34 16 31 44 33 29 36 46 42 31 29 34 38 41 40 32 28 20 16 10 10 11 15 15 21 20 20 12 19 26 23 16 18 28 20 18 20 22 23 34 32 47 44 43 43
55 51 47 41 37 29 30 29 26 29 36 52 47 41 32 38 45 42 39 37 31 22 15 14 6 11 11 7 18 23 19 15 18 22 25 15 5 19 22 18 21 24 23 31 35 45 48 47 46
51 49 42 45 35 33 31 28 27 41 45 41 35 16 17 43 45 45 41 39 31 24 20 12 11 10 6 4 15 18 24 24 16 16 21 19 1 13 20 24 21 21 23 28 32 36 34 36 43
49 50 50 37 29 27 28 27 26 30 34 24 14 24 29 44 45 50 45 41 34 25 19 16 11 4 9 5 7 21 24 29 16 10 22 16 8 10 17 32 24 27 21 22 28 25 21 33 44
47 47 41 29 30 30 30 24 28 30 36 13 1 15 42 51 52 54 48 41 33 26 23 16 11 6 6 12 17 13 23 28 21 5 14 11 10 7 19 30 26 33 22 22 27 30 34 36 36
50 43 27 25 24 25 30 30 28 31 8 7 6 4 37 45 46 47 42 39 33 27 22 17 13 8 4 4 15 19 28 30 18 7 9 17 14 5 17 31 35 28 22 28 28 26 32 34 37
46 29 22 22 23 23 37 36 30 16 18 5 6 26 37 41 45 47 45 42 35 28 25 17 14 9 5 4 8 15 22 20 23 16 13 15 20 12 18 27 34 33 25 26 30 28 35 37 42
46 34 25 30 22 32 41 34 10 11 11 3 2 16 36 38 43 45 45 40 35 29 25 19 15 11 5 2 3 11 11 21 26 24 20 18 18 17 23 21 25 27 27 32 30 32 35 36 47
42 44 35 35 34 24 22 22 21 22 15 17 21 24 36 34 42 44 44 39 33 30 26 20 14 12 8 2 2 7 12 15 22 21 24 27 20 26 23 27 24 31 33 35 42 47 51 48 50
46 38 32 25 33 30 24 30 10 23 12 21 20 17 34 35 41 44 42 38 31 29 27 23 17 13 10 4 2 6 7 16 18 19 20 23 26 33 30 33 36 37 41 47 52 51 52 50 46
37 39 36 27 29 24 20 19 19 19 23 22 16 29 33 41 44 44 42 37 31 29 27 26 19 15 12 7 6 9 7 12 9 16 22 22 30 27 30 37 39 41 42 48 50 51 50 44 45
47 46 35 22 32 21 21 10 21 17 17 21 29 34 37 46 44 41 41 37 34 31 30 26 22 17 15 10 10 12 10 12 11 21 28 29 23 25 30 35 39 42 40 40 39 38 41 41 38
Wind_Direction_500mb
167 150 129 237 255 232 257 11 250 333 60 53 7 348 337 318 34 52 132 138 85 115 228 259 292 291 315 314 306 300 292 289 290 298 292 292 288 290 294 293 291 291 280 272 261 256 249 258 253
162 191 245 264 246 280 260 284 348 8 23 19 315 259 278 74 60 98 136 131 127 241 247 279 287 288 303 308 302 296 285 285 287 280 284 288 289 294 293 294 285 286 281 270 263 256 253 252 254
179 218 271 241 249 266 338 300 349 356 331 138 297 182 32 92 79 77 117 109 217 231 263 247 255 290 296 303 294 286 279 280 281 281 282 282 279 278 278 280 283 280 277 273 254 252 249 248 251
173 227 249 251 262 271 264 345 340 360 319 180 207 0 116 127 128 129 151 204 242 279 265 274 284 287 291 294 280 272 271 272 275 280 281 279 277 277 275 276 272 274 270 263 246 243 235 235 238
232 266 258 260 270 357 292 319 6 321 310 325 108 291 105 130 129 141 152 206 233 251 271 282 281 286 284 288 278 269 268 271 280 282 281 280 279 277 275 273 271 274 267 258 250 235 231 228 232
225 225 266 273 307 230 267 346 349 312 296 321 245 180 101 156 139 148 163 219 219 227 240 264 270 288 292 296 294 282 277 277 279 278 279 280 279 277 275 273 273 270 262 252 246 237 228 229 234
250 267 268 282 303 298 311 23 285 291 324 345 10 10 145 167 161 169 191 199 214 225 249 270 274 299 315 310 308 300 295 291 286 280 279 280 281 279 275 272 270 266 254 246 238 241 232 228 234
239 262 274 276 273 285 344 272 250 295 249 336 336 316 12 132 182 219 192 214 226 251 232 250 301 294 301 306 297 298 301 303 295 287 282 281 282 287 283 276 268 260 247 242 235 235 234 229 233
243 254 260 270 286 308 309 315 319 297 210 264 220 200 175 163 204 199 219 226 240 226 275 300 269 263 274 275 288 292 300 306 309 305 289 285 292 288 264 276 275 258 245 240 230 227 222 223 225
235 246 257 270 287 313 315 308 296 304 249 229 201 197 204 187 197 218 222 227 241 233 257 277 274 269 292 300 285 280 292 274 286 301 292 292 286 278 267 242 252 251 239 229 218 218 219 221 219
237 247 256 272 292 303 298 297 285 281 296 276 14 303 180 190 210 223 235 241 207 217 260 261 278 293 304 291 271 297 305 278 293 305 307 297 294 309 263 269 254 246 245 224 216 217 218 222 214
249 250 253 258 277 299 277 278 274 286 287 277 280 265 194 204 216 224 234 249 254 237 258 271 281 280 300 293 284 281 278 277 298 308 311 306 290 298 273 262 257 242 231 220 209 214 218 223 185
253 257 259 271 285 266 265 260 281 275 277 288 283 241 234 237 214 225 223 232 215 234 240 276 276 297 299 317 294 278 285 291 291 293 292 298 292 275 271 270 255 230 233 224 208 203 199 206 190
254 260 267 267 256 264 269 265 261 266 252 249 260 260 248 233 220 208 213 213 226 237 254 265 291 289 304 301 326 314 313 294 289 276 262 279 290 278 276 278 252 231 213 226 204 196 188 196 201
263 265 269 259 258 258 270 263 248 273 238 265 251 243 243 262 233 221 208 207 220 234 243 266 314 312 309 321 309 310 309 309 295 276 258 259 275 272 281 281 267 236 218 216 204 196 192 197 206
256 260 258 260 254 253 237 251 262 254 252 262 247 254 249 232 231 204 203 212 215 214 237 257 262 272 293 298 312 317 320 320 301 289 270 265 267 270 269 274 263 254 205 201 200 193 198 200 205
246 251 253 258 249 253 239 236 237 261 281 248 239 250 259 237 198 197 200 208 209 218 223 243 260 299 286 325 343 319 306 325 323 303 295 274 264 253 251 258 248 204 186 190 189 180 190 185 176
235 240 238 252 260 264 218 243 242 237 249 255 271 249 248 228 189 194 196 207 210 211 228 239 280 283 297 357 345 327 317 329 344 331 321 286 257 239 240 243 223 192 182 179 175 175 188 174 173
243 248 245 251 255 220 236 238 241 259 276 286 286 275 252 202 183 185 194 200 207 209 222 232 258 287 309 4 327 318 325 348 344 340 343 323 261 230 223 226 208 187 179 181 180 180 178 176 170
242 251 260 273 284 291 289 269 281 288 270 266 265 267 264 170 158 175 190 197 206 212 210 222 249 270 308 326 311 343 334 315 309 329 344 346 296 200 209 204 183 178 177 182 175 176 177 180 173
233 242 253 261 275 276 282 272 265 263 269 265 258 240 262 154 163 177 185 196 202 204 208 201 225 255 349 34 344 318 320 327 324 339 344 359 223 201 195 169 155 162 176 182 168 177 183 171 175
232 232 239 252 273 273 287 294 286 298 276 258 249 216 183 162 175 179 184 193 198 202 199 194 210 234 325 299 335 328 332 343 314 318 4 24 69 172 175 165 172 162 141 170 162 155 153 163 174
233 238 242 237 247 257 268 270 278 289 280 243 151 237 186 166 173 176 181 188 192 194 191 187 209 225 251 350 348 360 353 349 347 324 14 49 60 141 181 168 170 164 164 175 161 158 162 162 171
233 237 246 254 262 255 252 257 270 266 16 63 341 258 138 152 165 170 177 182 185 189 189 189 200 215 217 326 342 359 345 358 9 63 49 47 41 103 163 169 162 172 185 179 178 160 162 155 158
222 219 224 225 237 253 251 246 244 287 302 349 317 136 143 150 159 166 173 176 182 184 186 188 204 206 207 277 350 17 359 26 55 85 54 50 49 95 138 165 174 183 181 175 177 164 157 154 151
203 207 226 222 226 244 244 233 253 106 98 106 77 77 127 150 159 169 174 177 180 182 187 189 194 203 183 249 10 27 354 23 70 67 51 50 57 93 128 139 156 175 179 171 161 145 144 146 143
199 213 215 253 267 288 269 235 204 173 170 198 193 139 134 153 161 169 173 178 180 184 187 186 197 195 195 223 78 59 3 49 64 54 54 42 78 107 120 131 150 151 151 150 150 144 144 142 145
223 194 208 229 244 265 281 278 251 137 193 132 118 135 138 155 164 170 174 178 181 184 186 187 194 197 197 163 99 82 34 58 46 52 61 56 91 110 104 126 130 143 147 147 149 152 150 137 130
205 229 200 226 222 231 248 266 134 149 113 118 144 138 153 161 170 171 175 177 182 182 185 188 192 188 192 168 162 117 98 85 71 68 70 80 101 108 95 114 123 137 143 148 153 157 151 144 140
208 216 205 212 219 256 260 283 90 103 128 123 123 143 161 165 174 174 176 177 184 182 185 187 190 189 192 176 161 140 124 111 90 88 82 76 105 115 113 117 122 134 144 150 152 153 154 165 168
Wind_Speed_850mb
21 18 10 20 13 16 31 23 15 15 26 27 17 13 22 20 22 8 17 9 7 3 10 21 19 13 19 25 25 24 27 29 33 32 35 35 37 32 30 30 29 31 31 29 27 25 23 25 26
20 9 16 22 21 27 6 19 13 21 21 21 13 12 10 20 24 15 23 10 5 4 9 14 18 22 25 29 29 28 31 35 37 34 38 39 39 40 36 35 31 29 31 30 28 27 27 26 26
25 16 26 16 28 28 14 6 19 24 23 5 19 7 3 13 15 10 11 3 6 7 23 22 23 29 36 36 33 32 35 38 40 43 44 41 40 42 41 42 42 37 36 32 28 28 28 25 28
9 19 26 19 32 24 16 14 16 20 28 9 8 8 17 15 19 14 5 5 8 9 8 20 19 28 39 36 37 41 42 44 47 47 47 45 46 46 47 47 44 43 41 36 29 31 32 31 30
20 23 24 36 36 14 36 21 13 16 21 25 16 5 16 21 21 17 11 8 11 12 14 17 27 35 35 37 39 45 46 50 50 50 52 52 50 49 50 48 47 47 44 45 37 37 36 36 34
24 34 25 30 32 9 18 10 10 22 26 14 9 2 16 26 18 14 12 11 12 17 21 16 23 30 33 33 31 37 43 50 52 53 53 54 55 56 59 59 57 51 48 47 42 37 40 36 38
31 24 34 39 38 38 33 7 10 23 19 15 20 10 7 24 18 14 14 19 13 8 13 14 15 30 32 29 34 36 37 43 48 52 55 59 61 59 58 61 60 50 46 46 44 38 40 41 39
39 23 42 37 35 33 13 20 20 24 12 13 3 7 9 19 18 8 14 14 9 17 8 14 20 16 22 31 29 38 43 49 44 45 52 53 53 48 35 37 44 43 45 45 45 40 38 40 39
41 27 31 43 42 28 35 28 24 24 16 31 14 11 8 14 16 13 17 19 15 13 19 17 14 26 32 24 28 34 40 38 46 32 38 39 34 25 22 26 36 32 38 43 41 38 35 38 42
41 28 46 44 41 29 40 31 40 38 29 26 29 25 25 23 22 23 24 21 28 17 15 20 29 36 41 20 21 28 27 36 47 51 34 31 29 30 26 29 36 31 39 40 42 39 33 36 42
52 41 44 54 50 40 45 42 41 34 20 19 15 2 34 27 29 29 26 26 14 6 7 18 30 35 35 22 25 26 22 37 53 33 26 27 23 19 15 23 30 31 33 42 43 42 38 36 41
49 63 61 62 48 47 38 57 42 27 23 25 5 8 25 33 32 30 28 21 15 14 12 12 17 27 29 29 21 18 25 38 33 22 33 31 21 15 20 27 28 33 31 40 42 39 34 28 31
55 52 66 50 37 58 62 51 39 30 25 17 13 20 22 22 29 32 29 18 17 10 13 14 24 22 27 24 19 26 35 37 26 22 25 34 25 25 26 24 24 28 30 35 38 36 38 25 37
60 62 55 46 64 60 48 39 37 51 25 13 19 23 30 30 29 28 26 25 18 17 10 16 14 20 18 21 26 30 36 31 29 22 25 32 24 26 25 22 24 28 35 40 35 39 38 35 37
63 51 46 48 45 46 51 39 32 49 31 41 29 36 31 25 27 34 35 27 24 18 14 14 17 17 23 25 28 31 35 33 29 28 32 32 30 25 23 19 19 25 43 38 43 42 30 38 43
47 52 43 46 45 59 51 38 31 42 41 43 38 32 39 37 32 29 27 29 27 20 16 14 10 14 17 25 27 27 32 34 32 29 30 34 32 28 21 18 19 15 36 43 41 45 37 34 39
42 37 51 48 46 49 43 35 33 43 43 39 33 34 33 29 29 28 29 30 25 20 16 11 13 9 19 18 27 30 28 35 28 29 26 25 27 28 22 17 11 12 27 40 39 42 34 35 42
40 46 43 45 46 44 28 35 31 47 49 22 52 44 37 33 38 36 35 28 25 20 16 11 7 13 18 14 25 22 27 24 25 25 24 22 20 24 23 19 16 16 26 37 46 40 38 46 45
49 46 48 45 34 16 31 44 33 29 36 46 42 31 29 34 38 41 40 32 28 20 16 10 10 11 15 15 21 20 20 12 19 26 23 16 18 28 20 18 20 22 23 34 32 47 44 43 43
55 51 47 41 37 29 30 29 26 29 36 52 47 41 32 38 45 42 39 37 31 22 15 14 6 11 11 7 18 23 19 15 18 22 25 15 5 19 22 18 21 24 23 31 35 45 48 47 46
51 49 42 45 35 33 31 28 27 41 45 41 35 16 17 43 45 45 41 39 31 24 20 12 11 10 6 4 15 18 24 24 16 16 21 19 1 13 20 24 21 21 23 28 32 36 34 36 43
49 50 50 37 29 27 28 27 26 30 34 24 14 24 29 44 45 50 45 41 34 25 19 16 11 4 9 5 7 21 24 29 16 10 22 16 8 10 17 32 24 27 21 22 28 25 21 33 44
47 47 41 29 30 30 30 24 28 30 36 13 1 15 42 51 52 54 48 41 33 26 23 16 11 6 6 12 17 13 23 28 21 5 14 11 10 7 19 30 26 33 22 22 27 30 34 36 36
50 43 27 25 24 25 30 30 28 31 8 7 6 4 37 45 46 47 42 39 33 27 22 17 13 8 4 4 15 19 28 30 18 7 9 17 14 5 17 31 35 28 22 28 28 26 32 34 37
46 29 22 22 23 23 37 36 30 16 18 5 6 26 37 41 45 47 45 42 35 28 25 17 14 9 5 4 8 15 22 20 23 16 13 15 20 12 18 27 34 33 25 26 30 28 35 37 42
46 34 25 30 22 32 41 34 10 11 11 3 2 16 36 38 43 45 45 40 35 29 25 19 15 11 5 2 3 11 11 21 26 24 20 18 18 17 23 21 25 27 27 32 30 32 35 36 47
42 44 35 35 34 24 22 22 21 22 15 17 21 24 36 34 42 44 44 39 33 30 26 20 14 12 8 2 2 7 12 15 22 21 24 27 20 26 23 27 24 31 33 35 42 47 51 48 50
46 38 32 25 33 30 24 30 10 23 12 21 20 17 34 35 41 44 42 38 31 29 27 23 17 13 10 4 2 6 7 16 18 19 20 23 26 33 30 33 36 37 41 47 52 51 52 50 46
37 39 36 27 29 24 20 19 19 19 23 22 16 29 33 41 44 44 42 37 31 29 27 26 19 15 12 7 6 9 7 12 9 16 22 22 30 27 30 37 39 41 42 48 50 51 50 44 45
47 46 35 22 32 21 21 10 21 17 17 21 29 34 37 46 44 41 41 37 34 31 30 26 22 17 15 10 10 12 10 12 11 21 28 29 23 25 30 35 39 42 40 40 39 38 41 41 38
Wind_Direction_850mb
167 150 129 237 255 232 257 11 250 333 60 53 7 348 337 318 34 52 132 138 85 115 228 259 292 291 315 314 306 300 292 289 290 298 292 292 288 290 294 293 291 291 280 272 261 256 249 258 253
162 191 245 264 246 280 260 284 348 8 23 19 315 259 278 74 60 98 136 131 127 241 247 279 287 288 303 308 302 296 285 285 287 280 284 288 289 294 293 294 285 286 281 270 263 256 253 252 254
179 218 271 241 249 266 338 300 349 356 331 138 297 182 32 92 79 77 117 109 217 231 263 247 255 290 296 303 294 286 279 280 281 281 282 282 279 278 278 280 283 280 277 273 254 252 249 248 251
173 227 249 251 262 271 264 345 340 360 319 180 207 0 116 127 128 129 151 204 242 279 265 274 284 287 291 294 280 272 271 272 275 280 281 279 277 277 275 276 272 274 270 263 246 243 235 235 238
232 266 258 260 270 357 292 319 6 321 310 325 108 291 105 130 129 141 152 206 233 251 271 282 281 286 284 288 278 269 268 271 280 282 281 280 279 277 275 273 271 274 267 258 250 235 231 228 232
225 225 266 273 307 230 267 346 349 312 296 321 245 180 101 156 139 148 163 219 219 227 240 264 270 288 292 296 294 282 277 277 279 278 279 280 279 277 275 273 273 270 262 252 246 237 228 229 234
250 267 268 282 303 298 311 23 285 291 324 345 10 10 145 167 161 169 191 199 214 225 249 270 274 299 315 310 308 300 295 291 286 280 279 280 281 279 275 272 270 266 254 246 238 241 232 228 234
239 262 274 276 273 285 344 272 250 295 249 336 336 316 12 132 182 219 192 214 226 251 232 250 301 294 301 306 297 298 301 303 295 287 282 281 282 287 283 276 268 260 247 242 235 235 234 229 233
243 254 260 270 286 308 309 315 319 297 210 264 220 200 175 163 204 199 219 226 240 226 275 300 269 263 274 275 288 292 300 306 309 305 289 285 292 288 264 276 275 258 245 240 230 227 222 223 225
235 246 257 270 287 313 315 308 296 304 249 229 201 197 204 187 197 218 222 227 241 233 257 277 274 269 292 300 285 280 292 274 286 301 292 292 286 278 267 242 252 251 239 229 218 218 219 221 219
237 247 256 272 292 303 298 297 285 281 296 276 14 303 180 190 210 223 235 241 207 217 260 261 278 293 304 291 271 297 305 278 293 305 307 297 294 309 263 269 254 246 245 224 216 217 218 222 214
249 250 253 258 277 299 277 278 274 286 287 277 280 265 194 204 216 224 234 249 254 237 258 271 281 280 300 293 284 281 278 277 298 308 311 306 290 298 273 262 257 242 231 220 209 214 218 223 185
253 257 259 271 285 266 265 260 281 275 277 288 283 241 234 237 214 225 223 232 215 234 240 276 276 297 299 317 294 278 285 291 291 293 292 298 292 275 271 270 255 230 233 224 208 203 199 206 190
254 260 267 267 256 264 269 265 261 266 252 249 260 260 248 233 220 208 213 213 226 237 254 265 291 289 304 301 326 314 313 294 289 276 262 279 290 278 276 278 252 231 213 226 204 196 188 196 201
263 265 269 259 258 258 270 263 248 273 238 265 251 243 243 262 233 221 208 207 220 234 243 266 314 312 309 321 309 310 309 309 295 276 258 259 275 272 281 281 267 236 218 216 204 196 192 197 206
256 260 258 260 254 253 237 251 262 254 252 262 247 254 249 232 231 204 203 212 215 214 237 257 262 272 293 298 312 317 320 320 301 289 270 265 267 270 269 274 263 254 205 201 200 193 198 200 205
246 251 253 258 249 253 239 236 237 261 281 248 239 250 259 237 198 197 200 208 209 218 223 243 260 299 286 325 343 319 306 325 323 303 295 274 264 253 251 258 248 204 186 190 189 180 190 185 176
235 240 238 252 260 264 218 243 242 237 249 255 271 249 248 228 189 194 196 207 210 211 228 239 280 283 297 357 345 327 317 329 344 331 321 286 257 239 240 243 223 192 182 179 175 175 188 174 173
243 248 245 251 255 220 236 238 241 259 276 286 286 275 252 202 183 185 194 200 207 209 222 232 258 287 309 4 327 318 325 348 344 340 343 323 261 230 223 226 208 187 179 181 180 180 178 176 170
242 251 260 273 284 291 289 269 281 288 270 266 265 267 264 170 158 175 190 197 206 212 210 222 249 270 308 326 311 343 334 315 309 329 344 346 296 200 209 204 183 178 177 182 175 176 177 180 173
233 242 253 261 275 276 282 272 265 263 269 265 258 240 262 154 163 177 185 196 202 204 208 201 225 255 349 34 344 318 320 327 324 339 344 359 223 201 195 169 155 162 176 182 168 177 183 171 175
232 232 239 252 273 273 287 294 286 298 276 258 249 216 183 162 175 179 184 193 198 202 199 194 210 234 325 299 335 328 332 343 314 318 4 24 69 172 175 165 172 162 141 170 162 155 153 163 174
233 238 242 237 247 257 268 270 278 289 280 243 151 237 186 166 173 176 181 188 192 194 191 187 209 225 251 350 348 360 353 349 347 324 14 49 60 141 181 168 170 164 164 175 161 158 162 162 171
233 237 246 254 262 255 252 257 270 266 16 63 341 258 138 152 165 170 177 182 185 189 189 189 200 215 217 326 342 359 345 358 9 63 49 47 41 103 163 169 162 172 185 179 178 160 162 155 158
222 219 224 225 237 253 251 246 244 287 302 349 317 136 143 150 159 166 173 176 182 184 186 188 204 206 207 277 350 17 359 26 55 85 54 50 49 95 138 165 174 183 181 175 177 164 157 154 151
203 207 226 222 226 244 244 233 253 106 98 106 77 77 127 150 159 169 174 177 180 182 187 189 194 203 183 249 10 27 354 23 70 67 51 50 57 93 128 139 156 175 179 171 161 145 144 146 143
199 213 215 253 267 288 269 235 204 173 170 198 193 139 134 153 161 169 173 178 180 184 187 186 197 195 195 223 78 59 3 49 64 54 54 42 78 107 120 131 150 151 151 150 150 144 144 142 145
223 194 208 229 244 265 281 278 251 137 193 132 118 135 138 155 164 170 174 178 181 184 186 187 194 197 197 163 99 82 34 58 46 52 61 56 91 110 104 126 130 143 147 147 149 152 150 137 130
205 229 200 226 222 231 248 266 134 149 113 118 144 138 153 161 170 171 175 177 182 182 185 188 192 188 192 168 162 117 98 85 71 68 70 80 101 108 95 114 123 137 143 148 153 157 151 144 140
208 216 205 212 219 256 260 283 90 103 128 123 123 143 161 165 174 174 176 177 184 182 185 187 190 189 192 176 161 140 124 111 90 88 82 76 105 115 113 117 122 134 144 150 152 153 154 165 168